Zurück zum Katalog

FENGYUN 1C DEB

AktivLEO
NORAD 32088·DEBRIS·🇨🇳 China

Gestartet May 10, 1999 von Taiyuan Satellite Launch Center

Loading…

Nächste Überflüge (nächste 24 Stunden)

TLE

AktuellSource: Space-Track

Epoche: Sep 13, 2026, 12:39 UTC

1 32088U 99025CQE 26256.52726684  .00002061  00000-0  26928-2 0  9995
2 32088 102.4002 180.9950 0464378 126.8614 237.6013 13.25901471634855

Verfolge FENGYUN 1C DEB in Echtzeit mit AllMySat

Download on the App Store